Time,TemperatureF,DewpointF,PressureIn,WindDirection,WindDirectionDegrees,WindSpeedMPH,WindSpeedGustMPH,Humidity,HourlyPrecipIn,Conditions,Clouds,dailyrainin,SoftwareType,DateUTC
2013-04-11 00:02:00,37.0,30.0,-100.00,NE,45,11.0,16.0,74,0.00,,,0.01,,2013-04-11 00:02:00,
2013-04-11 00:12:00,37.0,30.0,-100.00,NE,50,11.0,14.0,75,0.00,,,0.01,,2013-04-11 00:12:00,
2013-04-11 00:22:00,37.0,30.0,-100.00,NE,50,10.0,14.0,78,0.00,,,0.01,,2013-04-11 00:22:00,
2013-04-11 00:32:00,36.0,32.0,-100.00,NNE,30,14.0,17.0,82,0.00,,,0.01,,2013-04-11 00:32:00,
2013-04-11 00:42:00,36.0,32.0,-100.00,NNE,30,14.0,18.0,89,0.00,,,0.01,,2013-04-11 00:42:00,
2013-04-11 00:52:00,35.0,34.0,-100.00,NE,40,15.0,22.0,93,0.00,,,0.01,,2013-04-11 00:52:00,
2013-04-11 01:02:00,35.0,34.0,-100.00,NE,35,14.0,24.0,95,0.00,,,0.01,,2013-04-11 01:02:00,
2013-04-11 01:12:00,35.0,34.0,-100.00,NE,40,17.0,22.0,95,0.00,,,0.01,,2013-04-11 01:12:00,
2013-04-11 01:22:00,35.0,34.0,-100.00,NE,45,17.0,26.0,95,0.00,,,0.01,,2013-04-11 01:22:00,
2013-04-11 01:32:00,35.0,34.0,-100.00,NE,40,15.0,28.0,96,0.00,,,0.01,,2013-04-11 01:32:00,
2013-04-11 01:42:00,35.0,34.0,-100.00,NE,50,19.0,26.0,95,0.00,,,0.01,,2013-04-11 01:42:00,
2013-04-11 01:52:00,35.0,34.0,-100.00,NE,50,17.0,27.0,95,0.00,,,0.01,,2013-04-11 01:52:00,
2013-04-11 02:03:00,35.0,34.0,-100.00,NE,50,15.0,21.0,94,0.00,,,0.01,,2013-04-11 02:03:00,
2013-04-11 02:12:00,35.0,34.0,-100.00,NE,50,12.0,21.0,94,0.00,,,0.01,,2013-04-11 02:12:00,
2013-04-11 02:22:00,35.0,34.0,-100.00,ENE,60,14.0,19.0,92,0.00,,,0.01,,2013-04-11 02:22:00,
2013-04-11 02:32:00,36.0,34.0,-100.00,NE,55,10.0,16.0,92,0.00,,,0.01,,2013-04-11 02:32:00,
2013-04-11 02:42:00,36.0,34.0,-100.00,NE,55,10.0,16.0,92,0.00,,,0.01,,2013-04-11 02:42:00,
2013-04-11 02:52:00,36.0,34.0,-100.00,NE,45,6.0,10.0,90,0.00,,,0.01,,2013-04-11 02:52:00,
2013-04-11 03:02:00,36.0,34.0,-100.00,NE,50,6.0,8.0,89,0.00,,,0.01,,2013-04-11 03:02:00,
2013-04-11 03:12:00,36.0,32.0,-100.00,NE,50,6.0,7.0,87,0.00,,,0.01,,2013-04-11 03:12:00,
2013-04-11 03:22:00,36.0,32.0,-100.00,NNE,30,6.0,8.0,87,0.00,,,0.01,,2013-04-11 03:22:00,
2013-04-11 03:33:00,36.0,32.0,-100.00,NE,40,8.0,10.0,88,0.00,,,0.01,,2013-04-11 03:33:00,
2013-04-11 03:43:00,36.0,32.0,-100.00,NE,35,10.0,12.0,88,0.00,,,0.01,,2013-04-11 03:43:00,
2013-04-11 03:53:00,35.0,32.0,-100.00,NE,35,9.0,12.0,90,0.00,,,0.01,,2013-04-11 03:53:00,
2013-04-11 04:03:00,35.0,32.0,-100.00,NE,40,9.0,12.0,90,0.00,,,0.01,,2013-04-11 04:03:00,
2013-04-11 04:13:00,35.0,32.0,-100.00,NE,45,9.0,13.0,89,0.00,,,0.01,,2013-04-11 04:13:00,
2013-04-11 04:22:00,35.0,30.0,-100.00,NE,40,11.0,16.0,84,0.00,,,0.01,,2013-04-11 04:22:00,
2013-04-11 04:33:00,35.0,30.0,-100.00,NE,45,12.0,16.0,82,0.00,,,0.01,,2013-04-11 04:33:00,
2013-04-11 04:42:00,35.0,30.0,-100.00,NE,50,11.0,17.0,81,0.00,,,0.01,,2013-04-11 04:42:00,
2013-04-11 04:52:00,35.0,30.0,-100.00,NE,45,12.0,16.0,83,0.00,,,0.00,,2013-04-11 04:52:00,
2013-04-11 05:02:00,35.0,30.0,-100.00,NE,40,15.0,18.0,85,0.00,,,0.00,,2013-04-11 05:02:00,
2013-04-11 05:13:00,34.0,32.0,-100.00,NE,50,17.0,21.0,89,0.00,,,0.00,,2013-04-11 05:13:00,
2013-04-11 05:22:00,34.0,32.0,-100.00,NE,55,14.0,20.0,92,0.00,,,0.00,,2013-04-11 05:22:00,
2013-04-11 05:32:00,33.0,32.0,-100.00,NE,45,16.0,22.0,94,0.00,,,0.00,,2013-04-11 05:32:00,
2013-04-11 05:42:00,33.0,32.0,-100.00,NE,50,14.0,21.0,94,0.00,,,0.00,,2013-04-11 05:42:00,
2013-04-11 05:52:00,33.0,32.0,-100.00,NE,45,15.0,22.0,94,0.00,,,0.00,,2013-04-11 05:52:00,
2013-04-11 06:02:00,33.0,32.0,-100.00,NE,40,15.0,21.0,95,0.00,,,0.00,,2013-04-11 06:02:00,
2013-04-11 06:12:00,33.0,32.0,-100.00,NE,40,14.0,22.0,95,0.00,,,0.00,,2013-04-11 06:12:00,
2013-04-11 06:22:00,34.0,32.0,-100.00,NE,40,16.0,19.0,94,0.00,,,0.00,,2013-04-11 06:22:00,
2013-04-11 06:32:00,34.0,32.0,-100.00,NE,50,14.0,22.0,91,0.00,,,0.00,,2013-04-11 06:32:00,
2013-04-11 06:42:00,35.0,32.0,-100.00,NE,50,16.0,22.0,89,0.00,,,0.00,,2013-04-11 06:42:00,
2013-04-11 06:52:00,35.0,32.0,-100.00,ENE,65,14.0,19.0,87,0.00,,,0.00,,2013-04-11 06:52:00,
2013-04-11 07:02:00,35.0,30.0,-100.00,NE,50,17.0,23.0,85,0.00,,,0.00,,2013-04-11 07:02:00,
2013-04-11 07:12:00,35.0,30.0,-100.00,NE,45,14.0,19.0,83,0.00,,,0.00,,2013-04-11 07:12:00,
2013-04-11 07:32:00,35.0,30.0,-100.00,NE,50,15.0,21.0,79,0.00,,,0.00,,2013-04-11 07:32:00,
2013-04-11 07:42:00,36.0,28.0,-100.00,NE,45,16.0,21.0,78,0.00,,,0.00,,2013-04-11 07:42:00,
2013-04-11 07:52:00,36.0,28.0,-100.00,NE,50,16.0,22.0,76,0.00,,,0.00,,2013-04-11 07:52:00,
2013-04-11 08:02:00,36.0,28.0,-100.00,NE,50,20.0,24.0,75,0.00,,,0.00,,2013-04-11 08:02:00,
2013-04-11 08:12:00,35.0,28.0,-100.00,NE,50,19.0,24.0,76,0.00,,,0.00,,2013-04-11 08:12:00,
2013-04-11 08:22:00,35.0,28.0,-100.00,NE,45,18.0,24.0,78,0.00,,,0.00,,2013-04-11 08:22:00,
2013-04-11 08:32:00,35.0,28.0,-100.00,NE,55,17.0,26.0,80,0.00,,,0.00,,2013-04-11 08:32:00,
2013-04-11 08:42:00,35.0,28.0,-100.00,NE,50,17.0,24.0,80,0.00,,,0.00,,2013-04-11 08:42:00,
2013-04-11 08:52:00,34.0,28.0,-100.00,NE,50,17.0,25.0,81,0.00,,,0.00,,2013-04-11 08:52:00,
2013-04-11 09:02:00,34.0,30.0,-100.00,ENE,60,12.0,20.0,84,0.00,,,0.00,,2013-04-11 09:02:00,
2013-04-11 09:12:00,34.0,30.0,-100.00,NE,55,12.0,20.0,84,0.00,,,0.00,,2013-04-11 09:12:00,
2013-04-11 09:22:00,33.0,30.0,-100.00,ENE,70,12.0,17.0,85,0.00,,,0.00,,2013-04-11 09:22:00,
2013-04-11 09:33:00,33.0,30.0,-100.00,ENE,65,9.0,17.0,89,0.01,,,0.00,,2013-04-11 09:33:00,
2013-04-11 09:43:00,33.0,30.0,-100.00,ENE,65,9.0,17.0,89,0.01,,,0.00,,2013-04-11 09:43:00,
2013-04-11 10:23:00,31.0,30.0,-100.00,NE,50,10.0,14.0,99,0.01,,,0.01,,2013-04-11 10:23:00,
2013-04-11 10:32:00,31.0,30.0,-100.00,NE,50,9.0,16.0,99,0.01,,,0.01,,2013-04-11 10:32:00,
2013-04-11 10:42:00,31.0,30.0,-100.00,NE,50,9.0,16.0,99,0.01,,,0.01,,2013-04-11 10:42:00,
2013-04-11 10:52:00,31.0,30.0,-100.00,NE,50,9.0,12.0,99,0.01,,,0.01,,2013-04-11 10:52:00,
2013-04-11 11:02:00,31.0,30.0,-100.00,NE,50,9.0,12.0,99,0.01,,,0.01,,2013-04-11 11:02:00,
2013-04-11 11:12:00,31.0,30.0,-100.00,NE,50,9.0,12.0,99,0.00,,,0.02,,2013-04-11 11:12:00,
2013-04-11 11:22:00,30.0,30.0,-100.00,NE,45,11.0,14.0,99,0.02,,,0.02,,2013-04-11 11:22:00,
2013-04-11 11:32:00,30.0,30.0,-100.00,NE,45,12.0,14.0,99,0.01,,,0.02,,2013-04-11 11:32:00,
2013-04-11 11:42:00,30.0,30.0,-100.00,NE,40,12.0,17.0,99,0.08,,,0.03,,2013-04-11 11:42:00,
2013-04-11 11:52:00,30.0,30.0,-100.00,NE,40,14.0,18.0,99,0.06,,,0.04,,2013-04-11 11:52:00,
2013-04-11 12:02:00,30.0,30.0,-100.00,NE,40,14.0,18.0,99,0.06,,,0.04,,2013-04-11 12:02:00,
2013-04-11 12:12:00,30.0,30.0,-100.00,NE,40,14.0,18.0,99,0.06,,,0.04,,2013-04-11 12:12:00,
2013-04-11 12:22:00,30.0,30.0,-100.00,NE,40,14.0,18.0,99,0.06,,,0.04,,2013-04-11 12:22:00,
2013-04-11 12:32:00,30.0,30.0,-100.00,NE,40,14.0,18.0,99,0.06,,,0.04,,2013-04-11 12:32:00,
2013-04-11 14:12:00,30.0,30.0,-100.00,ENE,60,13.0,21.0,99,0.00,,,0.11,,2013-04-11 14:12:00,
2013-04-11 14:22:00,31.0,30.0,-100.00,ENE,60,15.0,21.0,99,0.03,,,0.11,,2013-04-11 14:22:00,
2013-04-11 14:32:00,31.0,30.0,-100.00,NE,55,15.0,21.0,99,0.00,,,0.11,,2013-04-11 14:32:00,
2013-04-11 14:42:00,31.0,30.0,-100.00,NE,55,13.0,18.0,99,0.00,,,0.11,,2013-04-11 14:42:00,
2013-04-11 14:52:00,31.0,30.0,-100.00,NE,55,16.0,20.0,99,0.00,,,0.11,,2013-04-11 14:52:00,
2013-04-11 15:22:00,32.0,32.0,-100.00,ENE,75,14.0,21.0,99,0.00,,,0.11,,2013-04-11 15:22:00,
2013-04-11 15:32:00,32.0,32.0,-100.00,ENE,70,16.0,21.0,99,0.00,,,0.11,,2013-04-11 15:32:00,
2013-04-11 15:43:00,33.0,32.0,-100.00,NE,55,12.0,22.0,99,0.00,,,0.11,,2013-04-11 15:43:00,
2013-04-11 16:52:00,34.0,34.0,-100.00,ENE,65,12.0,26.0,98,0.00,,,0.11,,2013-04-11 16:52:00,
2013-04-11 17:12:00,34.0,32.0,-100.00,East,80,19.0,24.0,95,0.00,,,0.11,,2013-04-11 17:12:00,
2013-04-11 17:23:00,34.0,32.0,-100.00,East,80,16.0,26.0,94,0.00,,,0.11,,2013-04-11 17:23:00,
2013-04-11 17:32:00,35.0,34.0,-100.00,ENE,70,15.0,23.0,94,0.00,,,0.11,,2013-04-11 17:32:00,
2013-04-11 17:43:00,35.0,34.0,-100.00,East,80,16.0,23.0,94,0.00,,,0.11,,2013-04-11 17:43:00,
2013-04-11 17:52:00,35.0,34.0,-100.00,ENE,65,17.0,21.0,94,0.00,,,0.11,,2013-04-11 17:52:00,
2013-04-11 18:03:00,35.0,34.0,-100.00,ENE,65,15.0,21.0,94,0.00,,,0.11,,2013-04-11 18:03:00,
2013-04-11 18:13:00,35.0,34.0,-100.00,ENE,65,12.0,21.0,95,0.00,,,0.11,,2013-04-11 18:13:00,
2013-04-11 18:22:00,35.0,34.0,-100.00,ENE,65,14.0,21.0,96,0.00,,,0.11,,2013-04-11 18:22:00,
2013-04-11 18:33:00,35.0,34.0,-100.00,ENE,70,14.0,18.0,96,0.00,,,0.11,,2013-04-11 18:33:00,
2013-04-11 18:42:00,35.0,34.0,-100.00,ENE,60,14.0,19.0,97,0.00,,,0.11,,2013-04-11 18:42:00,
2013-04-11 18:52:00,35.0,34.0,-100.00,NE,55,14.0,17.0,97,0.00,,,0.11,,2013-04-11 18:52:00,
2013-04-11 19:03:00,35.0,34.0,-100.00,NE,50,13.0,21.0,97,0.00,,,0.11,,2013-04-11 19:03:00,
2013-04-11 19:13:00,35.0,34.0,-100.00,ENE,60,17.0,22.0,97,0.00,,,0.11,,2013-04-11 19:13:00,
2013-04-11 19:22:00,35.0,34.0,-100.00,ENE,65,14.0,20.0,96,0.00,,,0.11,,2013-04-11 19:22:00,
2013-04-11 19:32:00,35.0,34.0,-100.00,ENE,70,14.0,19.0,95,0.00,,,0.11,,2013-04-11 19:32:00,
2013-04-11 19:43:00,35.0,34.0,-100.00,ENE,65,17.0,23.0,95,0.00,,,0.11,,2013-04-11 19:43:00,
2013-04-11 19:52:00,35.0,34.0,-100.00,ENE,70,18.0,22.0,95,0.00,,,0.11,,2013-04-11 19:52:00,
2013-04-11 20:02:00,35.0,34.0,-100.00,ENE,65,15.0,21.0,95,0.00,,,0.11,,2013-04-11 20:02:00,
2013-04-11 20:13:00,35.0,34.0,-100.00,ENE,70,12.0,22.0,96,0.00,,,0.11,,2013-04-11 20:13:00,
2013-04-11 23:12:00,35.0,34.0,-100.00,NE,40,13.0,16.0,99,0.00,,,0.11,,2013-04-11 23:12:00,
2013-04-11 23:23:00,35.0,34.0,-100.00,NE,35,12.0,17.0,99,0.00,,,0.11,,2013-04-11 23:23:00,
2013-04-11 23:32:00,35.0,34.0,-100.00,NE,40,13.0,17.0,99,0.00,,,0.11,,2013-04-11 23:32:00,
2013-04-11 23:42:00,35.0,34.0,-100.00,NNE,30,11.0,18.0,99,0.00,,,0.11,,2013-04-11 23:42:00,
2013-04-11 23:52:00,35.0,34.0,-100.00,NE,50,15.0,19.0,99,0.00,,,0.11,,2013-04-11 23:52:00,